Simultaneous Nadir Overpasses (SNOs) Predictions

Prediction of SNOs between GOES-17 and AQUA Satellite Orbit:

Table of predicted SNOs for the next 14.0 days since TLE Epoch: 4/15/2023
Index Date Time (GOES-17) GOES-17 Lat,Lon AQUA Lat,Lon Distance(km) Time Diff (sec)
1 04/15/2023 08:55:06 0.00,-104.72 0.42,-106.62 216.14 80
2 04/17/2023 08:38:38 0.00,-104.72 -0.33,-103.26 166.91 80
3 04/17/2023 20:59:37 -0.00,-104.73 -0.75,-108.34 410.67 80
4 04/19/2023 20:45:47 -0.00,-104.73 -0.07,-104.96 26.78 80
5 04/21/2023 20:34:37 0.00,-104.74 0.67,-101.59 357.53 80
6 04/22/2023 08:55:27 0.00,-104.74 0.40,-106.64 216.31 80
7 04/24/2023 08:38:56 0.00,-104.74 -0.32,-103.26 168.05 80
8 04/24/2023 20:59:54 -0.00,-104.74 -0.76,-108.34 409.67 80
9 04/26/2023 20:46:02 -0.01,-104.74 -0.03,-104.96 24.64 80
10 04/28/2023 20:34:49 -0.02,-104.75 0.69,-101.58 361.26 80
